星链-4710 (STARLINK-4710 )

导读

STARLINK-4710是美国太空探索技术公司星链星座的组网卫星,于2022年9月11日发射升空,归属星链互联网卫星星座项目。星链计划旨在搭建全球卫星互联网,为全球范围提供低延迟、高覆盖的宽带互联网服务,该卫星是星链大规模组网部署中的组成单元,服务星座整体覆盖能力构建。

基本信息
目录编号:
53799
目录名称:
STARLINK-4710
国际标识:
2022-111AC
轨道中心:
EARTH
卫星名称:
星链-4710
卫星全名:
星链-4710 (STARLINK-4710 )
卫星状态:
在轨 (已飞行1375 天)
发射日期:
2022-09-11 UTC
国别 :
美国 (US)
星等 :
--
轨道信息
数据来源 国际轨道数据 AOE轨道数据
星历时间 2026-06-16T15:26:12+0800
1天前
查看轨道信息
2026-06-17T03:00:00+0800
14小时前
查看轨道信息
半长轴 6917.898km 6917.895km
偏心率 0.0001251 0.0001344
轨道倾角 53.159° 53.156°
近地点辐角 84.363° 78.919°
升交点赤经 181.378° 179.214°
平近点角 275.751° 19.710°
近地点 538.895km 538.828km
远地点 540.627km 540.688km
周期 95.438分钟 95.438分钟
每日圈数 15.088344 15.088355
详细信息
固有亮度:
5
最大亮度:
2.5
卫星平台:
Starlink v1.5
覆盖范围:
全球
运营商:
太空探索技术公司
运营商所在国:
美国
制造商(研发单位):
太空探索技术公司
制造商所在国:
美国
使用方式:
暂无
卫星简介
星链(Starlink)计划是由太空探索技术公司(SpaceX)提出的一个巨型低轨卫星互联网星座项目,计划在2019年至2024年间在太空搭建由约1.2万颗卫星组成的“星链”网络,其中1584颗将部署在地球上空550千米处的近地轨道,并从2020年开始工作。该卫星仍在工作。
2D轨道图
3D轨道图
轨道高度分析图
轨道倾角分析图
轨道综合分析图
查看轨道综合分析图